Miscellaneous Local Product
Issued by NWS Hastings, NE

Home | Current Version | Previous Version | Text Only | Print | Product List | Glossary Off
Versions: 1 2 3 4 5 6 7 8 9 10 11 12 13 14 15 16 17 18 19 20 21 22 23 24 25 26 27 28 29 30 31 32 33 34 35 36 37 38 39 40 41 42 43 44 45 46 47 48 49 50

000
AXUS43 KGID 160102
MISGRI

GID CWA HOURLY WEATHER ROUNDUP
NATIONAL WEATHER SERVICE HASTINGS NE
800 PM CDT MON SEP 15 2014

NOTE: "FAIR" INDICATES FEW OR NO CLOUDS BELOW 12,000 FEET WITH NO
SIGNIFICANT WEATHER AND/OR OBSTRUCTIONS TO VISIBILITY.

...SOUTH CENTRAL NEBRASKA...

CITY           SKY/WX    TMP DP  RH WIND       PRES   REMARKS
GRAND ISLAND   CLEAR     56  46  69 NE5       30.25F
HASTINGS       CLEAR     57  45  64 NE5       30.25S
KEARNEY        CLEAR     57  45  62 NE3       30.25S
ORD            CLEAR     54  45  71 CALM      30.23F
YORK           CLEAR     54  46  76 E6        30.25S
AURORA         CLEAR     54  47  76 E3        30.25S
LEXINGTON      CLEAR     57  46  65 E5        30.24F
HOLDREGE       CLEAR     56  45  67 CALM      30.24F
HEBRON         CLEAR     57  45  62 CALM      30.24S

...NEBRASKA PANHANDLE...

CITY           SKY/WX    TMP DP  RH WIND       PRES   REMARKS
CHADRON        CLEAR     63  44  50 S8        30.14F
ALLIANCE       CLEAR     58  44  60 S10       30.19F
SCOTTSBLUFF    CLEAR     65  46  50 SE13      30.17F
SIDNEY         CLEAR     61  45  55 S10       30.24F

...WESTERN AND NORTH CENTRAL NEBRASKA...

CITY           SKY/WX    TMP DP  RH WIND       PRES   REMARKS
VALENTINE      CLEAR     57  40  52 SE8       30.21F
AINSWORTH      HAZE      54  43  67 SE5       30.23S VSB 1/4
ONEILL         CLEAR     58  42  55 CALM      30.25S
BROKEN BOW     CLEAR     55  44  66 E3        30.24F
IMPERIAL       CLEAR     62  45  53 S8        30.24S
NORTH PLATTE   CLEAR     54  46  74 E5        30.23F
MCCOOK         CLEAR     60  45  57 E7        30.24F

...EASTERN NEBRASKA...

CITY           SKY/WX    TMP DP  RH WIND       PRES   REMARKS
NORFOLK        CLEAR     52  44  74 SE3       30.24F
SO SIOUX CITY  CLEAR     53  45  74 CALM      30.24S
TEKAMAH        CLEAR     54  48  80 CALM      30.24S
ALBION         CLEAR     52  43  70 E5        30.25S
OMAHA EPPLEY   PTCLDY    56  47  71 CALM      30.24S
OFFUTT AFB     PTCLDY    54  49  83 N3        30.24R
MILLARD        PTCLDY    58  46  63 CALM      30.24R
LINCOLN        CLEAR     54  45  71 NE7       30.25S
NEBRASKA CITY  CLEAR     53  41  64 NE5       30.24R
BEATRICE       CLEAR     55  46  70 NE3       30.24R
FALLS CITY     CLEAR     57  49  74 N6        30.22R

...NORTHERN KANSAS...

CITY           SKY/WX    TMP DP  RH WIND       PRES   REMARKS
GOODLAND       CLEAR     60  50  69 SE7       30.26F
HILL CITY      CLEAR     62  44  51 NE7       30.24S
NORTON         CLEAR     57  39  51 E5        30.23F
PHILLIPSBURG   CLEAR     61  45  55 NE5       30.24S
SMITH CENTER   CLEAR     57  45  62 NE7       30.24S
BELOIT         CLEAR     61  46  59 N6        30.22R
HAYS           CLEAR     63  48  59 NE7       30.22S
RUSSELL        CLEAR     61  51  70 NE8       30.21R
CONCORDIA      CLEAR     60  48  64 NE8       30.22S
SALINA         CLEAR     68  51  54 N10       30.20R
TOPEKA         CLEAR     61  53  75 N8        30.20R



USA.gov is the U.S. government's official web portal to all federal, state and local government web resources and services.